Wind_Speed
24 24 24 24 25 25 25 25 25 24 23 21 19 16 14 13 11 9 9 8 8 10 12 14 15 17 17 17 17 16 16 16 16 17 18 19 21 23 26 29 33 36 39 41 42 42 42 41 39 35 30 25 20 18 18 18 19 21 22 23 24 25 26 27 27 27 26 26 25
24 24 24 24 24 24 24 24 23 22 21 19 17 15 13 12 10 9 9 9 10 11 12 14 15 15 15 16 17 17 19 20 22 23 25 28 31 34 37 40 42 43 43 43 42 40 37 33 28 23 20 18 17 17 18 19 20 21 23 24 25 26 28 28 28 28 28 28 27
24 24 24 24 23 23 22 21 21 20 19 16 15 14 14 13 11 10 11 11 12 13 13 14 15 15 16 17 19 20 22 25 29 32 34 37 39 41 42 42 41 40 39 37 35 31 27 24 21 19 17 17 17 18 19 19 21 22 24 25 27 28 28 29 29 29 29 29 28
23 23 24 23 22 21 21 20 20 19 17 16 16 15 14 13 12 12 12 12 13 14 14 15 16 17 18 19 21 23 25 27 29 32 34 36 37 37 36 36 34 33 33 31 29 26 23 21 19 18 17 17 18 19 20 21 23 24 25 26 27 28 29 29 29 29 29 29 29
23 23 23 22 21 20 20 20 20 18 17 16 16 15 15 14 13 13 13 13 13 14 16 17 18 19 20 22 23 24 25 26 27 29 31 31 31 30 29 28 28 28 28 27 25 22 20 18 17 17 17 18 19 20 21 23 24 25 26 27 27 28 29 29 29 30 30 29 29
23 23 22 21 21 20 20 19 18 17 17 17 17 16 15 15 15 15 15 15 15 16 17 19 20 22 23 24 25 26 26 26 26 27 27 27 26 25 25 26 26 25 24 21 19 17 16 15 16 17 18 19 20 22 23 23 24 25 26 27 28 29 29 30 30 30 30 30 30
23 23 21 20 20 19 19 18 18 18 18 17 17 16 16 16 16 16 16 17 17 18 19 21 22 24 25 26 26 26 26 26 25 25 24 22 22 23 23 23 22 20 17 15 14 14 14 15 17 18 19 20 21 22 23 24 25 27 28 29 29 30 30 30 30 30 30 30 30
22 21 20 19 19 19 19 19 19 18 18 17 17 17 17 17 17 17 17 17 18 19 20 22 23 25 26 27 27 26 25 24 23 22 21 21 21 21 21 20 17 14 12 12 13 14 15 17 18 19 20 21 23 24 25 26 27 28 29 30 30 30 30 30 30 30 30 30 30
21 20 19 19 20 20 20 20 19 19 19 18 18 18 17 17 17 17 17 17 18 19 20 22 24 26 27 27 26 25 24 23 22 22 21 21 20 19 17 15 12 11 12 13 14 16 17 19 20 21 23 24 25 26 27 28 29 29 30 31 31 31 31 31 31 31 31 31 31
20 19 20 20 20 20 20 20 20 20 19 19 19 18 17 17 17 17 18 18 19 19 21 22 24 25 26 25 24 23 23 22 21 21 20 19 17 15 12 11 11 13 14 15 17 18 19 21 22 23 24 25 26 27 28 29 29 30 31 31 31 31 32 32 32 32 32 32 32
19 19 20 20 21 21 21 21 21 21 20 19 19 18 18 18 18 18 19 19 20 21 22 23 24 24 23 22 21 21 20 19 18 18 17 15 14 12 11 12 13 14 16 17 18 19 21 22 23 24 25 26 27 28 29 30 30 31 31 32 32 32 32 33 33 32 32 33 33
20 20 20 20 21 21 21 22 22 21 20 19 19 18 18 19 19 20 20 20 21 22 23 24 24 23 21 20 19 18 17 16 15 14 13 11 11 11 12 13 15 16 17 18 19 20 21 23 24 26 27 28 29 29 30 31 31 32 32 32 33 33 33 33 33 32 32 32 32
21 21 21 21 22 22 22 22 22 21 20 19 19 19 19 20 20 20 20 20 21 22 22 22 22 21 20 18 17 16 14 13 12 11 11 11 12 13 14 15 16 17 18 19 20 21 23 24 26 27 28 29 30 31 31 31 32 32 32 33 33 33 33 32 32 31 31 30 30
22 22 22 23 23 23 23 23 22 21 21 20 20 20 20 20 20 20 19 19 20 20 21 22 21 20 18 17 15 13 13 13 14 14 14 15 15 16 16 16 17 18 19 20 21 23 24 26 27 29 30 30 31 31 32 31 31 31 31 32 32 32 31 31 30 30 29 28 28
23 23 23 23 23 23 23 23 23 22 21 21 21 20 20 20 19 19 19 19 19 19 20 20 19 18 17 15 14 14 15 16 17 17 17 17 17 17 17 17 18 19 20 22 23 25 26 28 29 30 30 31 31 31 31 31 31 30 30 30 30 30 30 29 29 28 27 27 27
24 23 23 23 23 23 23 23 23 23 22 22 21 20 20 19 19 18 18 18 18 18 18 18 18 17 16 15 15 17 18 19 19 19 18 17 17 17 17 18 19 21 22 24 25 27 28 29 30 30 30 31 31 31 31 31 30 30 30 29 29 29 28 28 27 27 27 27 27
24 24 24 24 24 24 24 24 23 23 22 22 21 20 19 19 19 19 19 19 19 19 19 19 19 18 16 16 18 20 21 20 18 17 16 16 17 17 18 20 21 22 24 26 27 28 29 30 30 30 30 30 31 31 31 31 30 30 29 29 28 28 27 27 27 27 27 28 28
24 24 24 25 25 25 24 24 24 23 22 22 21 20 20 20 20 20 20 20 21 21 21 21 20 19 19 20 22 21 19 17 16 15 16 16 18 19 20 21 23 24 25 27 28 29 30 30 30 30 30 30 30 30 30 30 29 29 28 28 28 28 28 28 28 28 28 28 29
25 25 25 25 25 24 24 24 24 23 22 22 21 21 20 20 21 21 23 24 25 24 24 23 22 22 22 23 21 19 16 15 15 15 17 18 19 21 22 23 24 25 26 28 28 29 29 30 30 30 30 29 29 29 29 28 28 28 28 28 28 28 28 28 29 29 29 29 29
26 25 25 25 24 24 24 24 23 23 22 21 21 21 21 22 23 25 27 28 27 26 25 24 24 25 24 22 19 16 14 15 16 17 18 20 21 22 23 24 25 26 27 27 28 28 28 28 29 29 28 28 28 28 28 28 28 28 28 29 29 29 29 29 30 30 30 30 30
26 25 25 25 24 24 23 23 23 22 22 21 21 21 22 24 26 27 28 28 26 25 25 25 26 25 22 19 16 15 15 16 18 19 20 21 22 23 23 24 25 25 26 27 27 27 27 27 27 28 28 28 28 28 28 28 28 29 29 29 30 30 30 30 30 30 31 31 31
26 25 25 24 23 23 22 22 22 22 22 22 22 22 23 25 26 26 25 24 24 24 25 25 24 22 19 16 15 16 17 18 20 21 22 22 23 23 23 24 24 25 25 26 26 26 27 27 27 27 27 27 28 28 28 29 29 29 30 30 30 30 31 31 31 31 32 32 32
26 25 24 23 23 23 23 23 22 22 21 21 21 23 24 24 24 23 22 22 22 22 22 21 20 18 16 16 17 18 19 21 22 23 23 23 23 23 23 24 24 24 25 25 26 27 27 27 28 28 28 28 28 28 29 29 29 30 30 30 31 31 31 31 32 32 33 33 34
25 23 22 21 21 21 21 21 21 21 21 21 22 23 23 22 22 21 20 20 20 19 18 17 16 16 17 18 19 21 22 23 24 24 25 25 24 24 24 24 23 24 24 26 27 27 28 28 28 28 28 28 29 29 29 29 30 30 30 31 31 32 32 33 33 33 34 35 35
23 21 20 20 20 20 20 20 21 22 22 23 23 23 22 21 20 19 18 17 16 15 15 15 16 17 19 21 22 23 24 24 25 25 26 26 25 25 24 24 24 24 25 27 28 28 28 28 28 28 29 29 29 29 30 30 30 30 31 31 32 32 33 34 35 35 36 36 37
21 20 20 20 21 21 22 23 23 24 24 23 22 21 20 18 17 16 15 14 14 14 15 17 19 21 22 23 24 24 25 25 25 25 25 25 25 25 25 25 25 26 27 28 28 28 28 28 28 28 28 29 29 30 30 30 30 31 31 32 33 33 34 35 36 37 38 38 39
21 20 20 21 21 22 22 22 22 22 20 19 18 16 15 14 14 14 14 14 15 16 18 20 21 23 23 24 25 25 25 25 25 24 24 24 25 25 26 27 27 28 28 27 27 27 28 28 28 28 29 29 29 30 30 31 31 32 32 33 34 35 36 37 38 39 40 41 41
20 19 19 19 19 20 19 19 18 17 15 14 13 13 13 13 14 14 15 16 18 19 21 22 23 24 25 25 26 26 26 25 24 24 24 25 26 27 28 29 29 28 27 26 27 27 28 28 29 29 29 29 30 30 31 32 32 33 34 35 35 36 37 38 39 40 41 42 42
19 18 17 17 17 17 16 16 15 14 12 12 12 12 13 14 16 17 18 19 20 21 22 23 24 25 26 26 26 26 25 24 24 25 26 27 29 30 29 28 27 26 26 26 27 28 28 29 29 29 29 30 31 31 32 33 34 35 35 36 37 38 39 39 40 41 41 41 41
18 16 16 15 16 16 15 15 14 13 13 13 13 14 15 17 18 20 21 22 23 23 24 25 26 26 26 26 25 25 24 25 26 28 29 30 29 28 26 25 25 25 26 27 28 28 29 29 29 29 30 30 31 32 33 34 35 36 37 38 38 39 40 40 41 41 40 40 39
17 16 15 15 15 15 15 15 15 15 14 15 15 16 17 19 21 22 23 24 24 25 25 26 26 25 23 23 23 24 25 27 28 29 29 27 25 24 23 24 25 27 27 28 28 29 29 29 30 30 31 31 32 33 34 35 36 37 38 39 39 40 40 40 40 39 38 36 34
16 15 15 15 15 15 15 15 16 16 16 17 18 19 20 22 23 24 25 25 25 25 26 26 25 24 22 23 24 26 27 28 28 26 24 23 22 23 25 26 27 28 28 28 28 29 29 29 30 30 31 32 33 34 35 36 37 38 39 39 40 40 39 39 38 36 34 32 29
15 15 15 15 15 15 15 16 16 17 18 19 20 21 22 23 24 25 25 26 26 25 25 24 23 23 24 25 27 28 27 26 24 22 22 22 24 26 27 28 28 28 28 28 29 29 29 30 30 31 32 33 34 35 36 37 38 39 39 39 39 38 37 36 34 32 29 27 25
15 15 15 15 16 16 16 17 18 19 20 21 22 23 23 23 24 24 25 25 25 24 23 23 24 25 27 27 26 25 24 22 22 22 23 25 26 27 28 28 28 28 28 28 28 29 29 30 31 32 33 34 35 36 37 38 38 39 38 38 37 36 34 32 30 27 24 23 22
16 16 16 17 17 18 18 19 20 21 22 22 23 23 23 23 23 24 24 24 24 24 24 25 26 26 26 24 23 21 21 22 23 24 25 27 27 28 28 28 28 28 28 28 28 29 30 31 32 33 35 36 36 37 37 38 37 37 36 35 34 33 31 29 27 24 22 21 22
17 17 18 18 19 19 20 20 21 22 22 22 22 23 23 23 23 23 24 24 24 25 25 25 25 23 21 20 20 21 22 23 24 25 26 27 27 27 27 27 27 27 27 28 29 30 31 32 33 35 36 36 37 37 36 36 35 34 32 31 31 30 29 27 25 23 22 23 25
17 18 18 19 19 20 20 20 21 22 22 22 23 23 23 23 23 23 23 24 24 23 23 22 21 20 20 20 21 22 23 24 25 26 26 26 26 26 26 26 27 27 28 29 30 31 32 33 34 35 36 36 36 35 33 32 31 29 28 28 27 27 26 25 24 24 24 25 27
17 17 18 18 18 18 19 20 20 21 21 22 22 22 22 22 22 22 22 22 21 20 20 20 19 20 20 21 22 23 24 25 25 25 25 25 26 26 26 26 27 27 28 30 31 32 33 34 35 35 35 34 32 31 29 27 26 25 25 25 25 25 25 24 24 25 26 27 28
16 16 16 16 17 17 18 18 19 19 19 19 19 19 19 19 19 19 19 19 18 18 19 19 20 20 21 22 23 24 25 25 25 25 24 24 25 25 26 26 27 28 29 31 32 33 34 35 34 34 32 30 28 26 24 23 22 23 23 24 24 24 25 25 26 27 29 30 31
15 15 14 15 15 16 17 17 17 17 17 17 17 17 17 17 17 17 17 17 17 18 19 20 21 22 23 23 24 24 24 24 24 24 24 24 24 25 26 27 28 29 30 32 33 33 34 34 33 31 29 26 23 21 20 20 21 22 23 23 24 25 27 28 29 30 32 33 34
13 13 14 14 15 16 16 16 16 16 16 16 16 16 16 16 16 16 16 17 18 19 20 21 22 23 23 24 24 24 24 24 24 24 23 24 24 25 26 27 29 30 31 32 33 33 33 33 31 28 24 21 19 18 18 19 21 23 24 25 26 27 29 30 31 32 33 34 35
Wind_Direction
322 321 320 318 317 316 315 315 317 318 320 322 325 326 327 326 322 312 298 281 263 243 229 222 219 218 219 221 226 231 237 244 250 255 260 264 268 271 274 276 278 279 279 280 280 282 284 286 289 293 295 297 297 294 290 288 289 290 291 291 293 296 298 299 299 299 299 299 298
323 322 321 319 317 315 314 314 315 317 318 319 320 320 319 317 312 303 290 278 274 264 249 237 233 233 236 242 248 254 260 263 266 267 269 271 273 275 276 277 278 279 280 282 285 287 290 292 295 296 295 293 291 290 290 291 291 292 292 292 293 295 296 297 297 298 298 298 298
324 323 321 319 316 314 313 313 313 314 314 314 314 313 310 307 301 295 288 281 276 269 259 247 243 243 247 251 256 260 263 264 265 266 268 269 271 273 274 275 276 279 282 286 289 291 293 294 294 292 291 290 289 289 290 291 291 290 291 291 293 293 294 295 296 296 297 298 298
325 323 320 318 314 312 311 309 309 309 308 307 307 306 302 298 293 290 287 282 275 269 263 258 254 251 251 251 253 255 257 259 262 264 266 268 270 272 274 276 280 284 287 290 291 292 293 293 292 291 289 288 288 288 288 288 288 288 289 290 291 292 293 294 295 296 297 298 298
324 322 319 316 311 308 306 305 304 303 302 301 301 299 296 294 290 287 285 281 277 273 272 269 265 260 257 255 254 255 257 259 262 265 268 271 274 277 282 286 290 292 294 294 295 295 295 294 291 288 287 286 286 285 285 285 286 286 288 290 291 292 293 294 295 296 296 297 297
324 321 318 313 308 304 302 300 299 298 296 294 293 291 288 288 287 286 284 281 279 278 277 275 271 267 264 262 260 261 263 265 267 270 273 277 281 286 291 295 297 299 300 301 301 299 296 292 288 286 284 284 283 283 284 285 287 289 290 292 292 293 294 295 295 296 296 297 297
323 320 315 308 304 301 298 296 295 292 290 288 285 283 281 281 282 282 282 281 281 282 282 280 278 275 272 269 268 269 271 272 275 277 281 285 290 295 299 301 302 304 306 306 302 296 291 287 285 284 284 284 285 286 288 290 291 292 293 294 294 294 295 296 296 296 296 296 296
321 317 311 305 302 298 295 293 291 289 287 285 282 279 278 279 279 279 280 281 282 283 284 285 284 282 279 275 274 274 276 277 279 281 285 290 295 299 302 304 306 307 304 298 292 288 286 285 285 287 288 290 291 292 292 293 294 294 295 295 295 295 295 295 295 295 295 295 295
318 313 308 303 300 296 293 291 288 286 284 282 280 278 278 279 279 280 282 282 283 284 285 285 285 283 281 278 276 277 278 280 282 285 289 293 297 300 301 299 297 292 287 284 283 283 283 285 286 288 290 291 293 293 293 294 294 294 295 294 295 295 295 294 294 294 294 294 294
314 309 305 301 298 295 292 289 286 284 283 281 280 279 279 280 281 282 283 283 284 285 285 285 284 282 280 279 279 280 283 286 288 290 293 294 295 294 290 284 280 279 280 281 281 282 283 285 286 287 288 289 291 292 293 293 294 294 294 294 294 294 294 293 293 294 293 293 293
312 308 304 300 296 293 290 287 286 284 283 281 279 279 280 281 282 283 284 284 285 285 285 285 284 282 281 281 283 285 286 288 288 290 290 287 284 280 274 275 277 279 281 283 283 284 285 287 288 288 289 290 291 291 292 292 292 292 293 292 293 293 293 293 293 293 293 293 292
312 308 304 300 297 293 289 286 285 283 281 279 279 278 279 280 281 282 283 284 285 285 286 286 285 284 283 283 283 283 283 283 283 283 281 274 270 269 272 275 278 280 282 284 285 286 287 289 290 290 290 290 291 291 291 292 292 292 292 292 292 292 292 292 292 293 293 293 292
313 309 304 299 297 294 288 284 282 280 279 278 277 278 278 279 280 281 283 284 286 286 287 286 285 283 281 279 278 278 278 279 279 275 270 267 268 272 275 277 278 280 283 285 287 289 290 291 291 291 291 290 290 290 291 291 292 292 292 292 292 292 292 293 293 293 293 293 293
312 308 303 299 295 290 286 282 280 278 277 276 276 277 277 278 280 282 284 285 286 287 286 285 282 279 276 274 273 275 277 278 278 275 273 272 273 275 276 277 279 282 285 288 290 291 291 291 291 291 291 291 291 291 291 292 292 292 292 292 292 293 293 293 294 294 294 294 293
310 306 302 297 292 287 284 281 280 278 277 276 276 276 276 277 280 282 284 285 286 286 284 282 279 276 274 271 273 277 281 282 282 280 278 277 276 276 277 279 282 286 288 290 290 291 291 291 291 291 291 292 292 292 292 292 292 293 293 293 293 293 294 294 295 295 295 295 295
309 305 301 295 290 286 283 280 279 277 277 276 275 275 275 277 279 282 284 284 285 284 281 278 275 272 270 270 276 283 286 286 284 281 279 277 276 277 280 283 285 288 289 290 290 290 290 291 291 292 292 292 293 292 293 293 293 293 293 293 294 294 295 295 295 296 296 296 296
309 306 301 296 291 287 283 279 277 275 275 274 273 274 275 277 279 281 282 283 282 280 277 272 269 265 267 274 283 288 288 286 282 278 276 276 277 280 282 284 286 287 289 289 290 290 291 291 292 292 293 293 293 292 292 292 293 293 293 293 294 294 295 295 296 296 296 296 296
310 307 302 297 291 286 281 278 276 274 273 273 273 274 276 277 278 279 280 280 278 276 271 266 263 264 271 281 287 288 284 279 274 273 274 276 278 280 281 283 285 287 289 291 291 291 292 292 292 292 292 292 292 292 292 292 293 293 293 294 294 294 295 295 295 296 296 296 296
310 306 302 296 290 285 280 277 275 273 272 272 272 273 274 275 275 276 278 279 278 274 270 265 264 270 279 285 285 281 274 269 268 270 273 275 276 277 279 282 285 288 291 293 293 293 293 293 292 292 292 292 292 292 292 292 293 293 293 294 294 294 295 295 295 296 296 296 296
310 306 301 296 290 284 280 277 274 272 270 270 270 270 271 273 276 279 282 283 281 277 272 269 273 278 283 283 277 269 263 263 265 268 270 272 273 276 279 282 287 290 293 295 295 294 293 293 292 292 292 292 292 292 292 293 293 293 294 294 294 295 295 295 296 296 296 296 297
310 305 300 296 290 284 279 275 271 269 267 266 267 268 272 277 282 286 288 287 284 280 276 277 280 282 281 274 265 259 258 261 263 266 268 270 273 277 281 285 289 292 295 296 296 295 294 293 293 293 293 293 294 294 295 295 295 295 295 295 295 296 296 296 297 297 297 297 297
311 306 300 294 288 282 277 272 268 265 264 265 267 272 278 284 289 292 292 290 285 282 281 282 282 279 272 264 258 256 257 260 262 264 267 271 275 279 283 288 291 294 296 297 297 297 296 295 295 295 295 296 296 296 297 297 297 297 297 297 297 297 297 298 298 298 298 298 298
311 306 299 292 285 281 277 273 269 267 267 270 275 281 286 290 293 293 291 288 285 283 282 281 277 271 263 258 256 257 258 260 262 264 268 272 277 281 285 289 293 295 297 298 299 299 299 298 298 298 298 298 298 298 298 299 299 299 299 299 299 299 299 299 298 298 298 298 297
311 304 297 290 284 280 277 275 274 274 277 280 284 288 290 292 292 290 287 284 283 282 280 276 270 264 259 258 258 259 260 261 263 265 269 273 277 282 286 289 293 296 298 299 300 300 300 300 300 300 300 300 299 299 299 299 300 300 300 300 300 300 300 299 299 299 298 298 297
309 301 294 288 284 281 280 279 280 281 283 284 286 288 289 289 288 286 284 282 281 280 276 270 265 261 259 259 259 260 261 262 265 268 271 274 278 282 286 290 294 296 298 299 300 299 299 299 300 300 300 300 300 300 300 300 300 301 301 301 300 300 300 300 299 299 298 298 297
305 297 291 288 285 283 283 282 283 284 284 285 286 287 287 287 285 284 282 281 279 274 269 265 262 260 259 259 259 260 261 263 267 270 274 278 281 285 290 294 297 299 300 301 300 299 298 298 299 300 300 300 300 300 301 301 301 302 301 301 301 300 300 299 299 299 298 298 297
304 298 293 289 287 286 286 286 286 286 286 286 286 286 286 286 284 283 282 278 272 267 264 262 261 260 260 260 260 260 262 264 268 273 278 283 288 292 296 299 301 302 303 302 300 299 298 299 299 300 300 301 301 302 302 302 302 302 302 301 301 300 300 299 299 299 299 299 298
306 301 297 294 292 291 291 291 290 289 289 289 288 288 287 285 283 281 277 272 268 265 263 262 262 262 261 261 260 261 262 265 270 276 283 289 295 298 301 303 304 304 303 301 299 299 299 300 300 300 301 302 303 303 303 303 303 302 302 301 301 300 300 300 300 300 300 300 299
307 303 300 297 296 296 296 296 295 294 294 293 291 289 286 284 281 277 274 271 269 268 266 265 264 263 261 260 260 261 264 270 276 283 290 295 299 302 304 305 305 303 301 300 300 300 300 301 301 302 302 303 304 304 304 303 303 303 302 301 301 301 300 300 300 301 300 300 300
307 304 301 300 299 299 298 298 297 296 294 292 290 287 284 282 279 276 275 274 273 271 268 266 264 262 260 261 263 268 274 280 285 291 296 300 304 305 306 305 303 302 301 301 301 301 302 302 302 303 303 304 304 304 304 304 303 302 302 301 301 301 301 301 301 301 301 301 301
305 303 301 300 300 299 298 296 294 292 290 289 288 286 283 280 278 278 277 276 274 271 267 264 261 261 264 268 274 282 288 293 296 300 303 306 308 308 306 304 303 302 302 302 302 303 303 303 303 304 304 304 304 304 304 303 303 302 302 301 301 301 301 301 301 301 301 301 302
303 302 301 300 299 297 294 291 289 288 286 285 284 282 279 278 278 277 277 274 271 267 264 261 260 264 273 280 288 294 298 302 305 308 310 311 309 306 305 304 304 304 303 303 303 303 303 304 304 304 305 305 305 304 304 303 303 302 302 301 301 301 301 301 301 300 300 300 301
300 298 297 296 293 291 289 287 285 284 282 280 278 277 276 275 275 274 272 270 266 264 263 264 269 276 284 291 296 300 304 307 310 312 311 309 307 306 305 305 305 304 304 304 304 304 304 305 305 305 305 305 305 305 304 304 303 303 302 302 301 301 301 300 299 298 298 299 300
294 292 290 289 287 286 284 282 280 278 277 275 274 273 273 272 272 270 268 266 265 266 270 276 283 289 294 298 301 305 307 309 310 310 309 307 306 306 305 305 304 304 304 304 304 305 305 306 306 306 306 306 306 306 305 305 304 303 302 302 301 300 299 298 296 295 296 297 297
287 286 284 282 281 280 278 277 275 274 274 273 273 272 272 271 270 269 269 270 272 277 283 288 292 296 299 301 304 306 308 308 308 308 307 306 305 305 304 304 304 304 304 305 306 306 307 307 307 307 307 307 307 307 306 305 304 303 302 301 300 298 297 295 293 293 294 295 294
284 282 280 278 277 276 276 276 276 276 275 275 275 275 275 275 275 276 278 281 285 288 291 293 295 297 299 302 304 306 307 307 307 306 305 305 304 304 303 303 304 304 305 306 307 307 308 308 308 308 309 308 308 307 307 305 304 303 301 299 298 297 296 295 294 293 291 289 288
283 282 281 279 279 280 281 283 284 284 283 283 283 283 283 283 284 286 288 290 291 292 292 293 294 296 299 301 303 305 305 305 305 305 304 304 303 303 304 304 305 306 307 308 308 308 309 309 309 310 310 310 309 308 306 304 303 301 299 298 297 297 298 298 297 294 291 288 287
285 285 286 287 287 289 291 293 294 294 293 292 291 290 290 290 290 291 291 290 290 290 291 293 295 297 299 302 303 304 304 304 304 304 303 303 303 304 305 306 306 307 308 308 309 309 309 310 310 311 311 310 309 307 305 303 301 299 298 298 298 299 300 302 301 300 298 296 296
290 291 292 293 295 297 299 301 301 300 299 296 294 293 292 291 291 290 289 289 290 291 293 295 297 299 301 302 303 303 303 303 303 303 303 304 304 305 306 307 308 308 309 309 309 310 310 311 311 312 311 310 307 305 303 301 300 299 299 299 300 302 305 306 307 306 305 305 305
292 292 292 293 296 299 302 303 303 301 298 295 293 292 291 291 291 291 292 292 293 295 296 298 299 300 301 302 302 303 303 303 302 303 303 304 305 307 308 308 309 309 309 309 310 310 311 312 313 313 311 309 305 303 302 302 301 301 301 303 305 308 309 310 309 307 306 305 306
288 288 289 292 296 299 302 303 302 300 298 296 295 295 296 296 296 296 296 296 296 297 297 298 299 300 301 302 302 303 303 302 302 303 304 305 306 308 309 309 310 310 310 310 310 311 312 313 313 313 311 307 304 302 303 304 305 306 307 309 311 312 311 309 307 304 303 303 304
Height
1499 1498 1498 1497 1495 1494 1493 1492 1491 1490 1489 1488 1487 1486 1485 1484 1483 1483 1482 1482 1482 1482 1482 1482 1481 1481 1481 1481 1481 1481 1481 1481 1481 1481 1481 1480 1480 1480 1480 1479 1479 1479 1479 1478 1478 1478 1477 1476 1476 1475 1475 1475 1475 1475 1476 1476 1475 1475 1474 1474 1473 1473 1472 1471 1470 1470 1469 1468 1468
1498 1497 1496 1495 1494 1493 1492 1491 1489 1488 1488 1487 1486 1485 1484 1484 1483 1483 1483 1482 1482 1482 1482 1482 1482 1482 1482 1482 1482 1482 1482 1482 1482 1481 1481 1480 1479 1479 1478 1478 1477 1477 1477 1476 1476 1475 1475 1475 1474 1474 1474 1474 1474 1474 1474 1474 1474 1473 1473 1472 1472 1471 1470 1469 1469 1468 1468 1467 1466
1497 1496 1495 1494 1493 1492 1491 1490 1489 1488 1487 1486 1485 1485 1484 1483 1483 1483 1483 1482 1482 1482 1482 1481 1481 1482 1482 1481 1481 1481 1481 1480 1480 1479 1479 1478 1477 1476 1476 1475 1475 1474 1474 1474 1474 1474 1473 1473 1473 1473 1473 1473 1473 1473 1473 1473 1473 1472 1471 1471 1470 1469 1468 1468 1467 1466 1466 1465 1464
1495 1494 1493 1492 1491 1491 1490 1489 1488 1487 1486 1485 1485 1484 1483 1483 1482 1482 1482 1482 1481 1481 1481 1481 1481 1480 1480 1480 1479 1479 1478 1478 1477 1476 1475 1475 1474 1473 1473 1473 1473 1473 1472 1472 1472 1472 1472 1472 1471 1471 1471 1471 1471 1471 1471 1471 1471 1470 1469 1469 1468 1468 1467 1466 1465 1464 1464 1463 1462
1493 1493 1492 1491 1490 1489 1488 1488 1487 1486 1485 1485 1484 1483 1483 1482 1482 1481 1481 1481 1481 1481 1481 1480 1480 1479 1479 1478 1478 1477 1476 1475 1474 1473 1473 1472 1472 1472 1471 1471 1471 1471 1471 1471 1471 1470 1470 1470 1470 1470 1470 1470 1470 1470 1470 1470 1469 1468 1468 1467 1466 1466 1465 1464 1463 1463 1462 1461 1460
1492 1491 1490 1489 1488 1488 1487 1486 1486 1485 1484 1484 1483 1482 1482 1481 1481 1480 1480 1479 1479 1479 1479 1479 1479 1478 1478 1477 1476 1475 1474 1473 1473 1472 1471 1471 1470 1470 1470 1469 1469 1469 1469 1469 1469 1469 1470 1470 1470 1470 1469 1469 1469 1468 1468 1468 1467 1466 1466 1465 1464 1463 1463 1462 1461 1460 1459 1459 1458
1490 1489 1488 1488 1487 1486 1486 1485 1484 1484 1483 1483 1482 1481 1480 1480 1479 1479 1478 1478 1478 1478 1478 1478 1477 1477 1477 1476 1475 1474 1473 1472 1471 1470 1470 1469 1469 1469 1469 1468 1468 1468 1468 1468 1469 1469 1469 1469 1469 1468 1468 1468 1467 1467 1466 1466 1465 1464 1463 1463 1462 1461 1460 1459 1459 1458 1458 1457 1456
1488 1488 1487 1486 1486 1485 1484 1483 1483 1483 1482 1481 1481 1480 1479 1479 1478 1478 1477 1477 1476 1476 1476 1476 1476 1475 1475 1474 1473 1473 1472 1471 1470 1469 1469 1469 1468 1468 1468 1468 1468 1468 1468 1468 1468 1468 1468 1468 1467 1467 1466 1466 1465 1465 1464 1464 1463 1462 1461 1460 1459 1459 1458 1458 1457 1456 1455 1454 1454
1487 1486 1485 1485 1484 1483 1483 1482 1482 1481 1480 1480 1479 1479 1478 1478 1477 1477 1476 1475 1475 1474 1474 1474 1473 1473 1473 1472 1471 1471 1470 1469 1469 1468 1468 1468 1467 1467 1467 1467 1467 1467 1467 1467 1467 1467 1466 1466 1465 1465 1464 1464 1463 1463 1462 1462 1461 1460 1459 1458 1457 1456 1456 1455 1454 1454 1453 1452 1452
1486 1485 1484 1483 1483 1482 1481 1481 1480 1479 1479 1478 1478 1477 1477 1476 1476 1475 1475 1474 1473 1473 1473 1472 1472 1471 1471 1470 1469 1469 1469 1468 1468 1468 1467 1467 1467 1466 1466 1466 1466 1466 1466 1466 1466 1465 1465 1464 1464 1463 1463 1462 1462 1461 1460 1459 1458 1458 1457 1456 1455 1454 1453 1453 1452 1452 1451 1450 1449
1484 1484 1483 1482 1481 1481 1480 1479 1478 1478 1478 1477 1476 1476 1475 1475 1474 1474 1473 1473 1472 1472 1471 1471 1470 1469 1469 1468 1468 1468 1468 1467 1467 1466 1466 1466 1465 1465 1465 1465 1465 1465 1464 1464 1464 1463 1463 1463 1462 1461 1461 1460 1460 1459 1458 1457 1456 1455 1454 1453 1453 1452 1451 1450 1450 1449 1448 1448 1447
1483 1483 1482 1481 1480 1479 1478 1478 1477 1477 1476 1475 1475 1474 1473 1473 1473 1472 1472 1471 1471 1470 1470 1469 1469 1468 1468 1467 1467 1467 1466 1466 1465 1465 1464 1464 1464 1464 1464 1464 1463 1463 1463 1463 1462 1462 1461 1461 1460 1459 1459 1458 1458 1457 1456 1455 1454 1453 1452 1451 1450 1449 1449 1448 1448 1447 1446 1445 1445
1482 1481 1480 1479 1479 1478 1477 1476 1475 1475 1474 1474 1473 1473 1472 1471 1471 1470 1470 1469 1469 1469 1468 1468 1468 1467 1467 1466 1466 1465 1465 1464 1464 1464 1463 1463 1463 1463 1463 1463 1462 1462 1462 1461 1461 1460 1459 1459 1458 1458 1457 1456 1455 1454 1453 1453 1452 1451 1450 1449 1448 1447 1446 1446 1445 1444 1444 1443 1443
1481 1480 1479 1478 1477 1476 1475 1474 1474 1473 1473 1472 1472 1471 1470 1470 1469 1469 1468 1468 1468 1467 1467 1466 1466 1466 1465 1465 1464 1464 1464 1464 1463 1463 1463 1462 1462 1462 1461 1461 1461 1460 1460 1459 1459 1458 1458 1457 1456 1455 1454 1453 1453 1452 1451 1450 1449 1448 1447 1446 1445 1445 1444 1443 1443 1442 1442 1441 1440
1480 1479 1478 1477 1475 1474 1474 1473 1473 1472 1471 1471 1470 1469 1469 1468 1468 1468 1467 1467 1466 1466 1466 1465 1464 1464 1464 1464 1463 1463 1463 1463 1462 1462 1461 1461 1461 1460 1460 1459 1459 1458 1458 1458 1457 1456 1456 1455 1454 1453 1452 1451 1450 1449 1448 1448 1447 1446 1445 1444 1443 1442 1442 1441 1440 1440 1439 1438 1438
1479 1478 1477 1476 1475 1473 1473 1472 1471 1470 1470 1469 1468 1468 1467 1467 1467 1466 1466 1466 1465 1465 1464 1464 1463 1463 1463 1463 1463 1462 1462 1461 1461 1460 1460 1460 1459 1459 1458 1458 1457 1457 1456 1456 1455 1454 1453 1453 1452 1451 1450 1449 1448 1447 1446 1445 1444 1443 1443 1442 1441 1440 1439 1439 1438 1438 1437 1437 1436
1478 1477 1476 1475 1474 1473 1472 1470 1470 1469 1468 1468 1467 1466 1466 1466 1465 1465 1465 1464 1464 1463 1463 1463 1462 1462 1462 1462 1461 1461 1460 1460 1459 1459 1458 1458 1458 1457 1457 1456 1455 1455 1454 1453 1453 1452 1451 1450 1449 1448 1448 1446 1445 1444 1443 1443 1442 1441 1440 1439 1439 1438 1438 1437 1436 1436 1435 1435 1434
1476 1476 1475 1474 1473 1471 1470 1469 1468 1468 1467 1466 1466 1465 1465 1464 1464 1463 1463 1463 1462 1462 1461 1461 1461 1461 1460 1460 1460 1459 1459 1458 1458 1458 1457 1457 1456 1455 1455 1454 1453 1453 1452 1451 1450 1450 1449 1448 1447 1446 1445 1444 1443 1442 1442 1441 1440 1439 1438 1438 1437 1436 1435 1435 1434 1434 1433 1433 1432
1475 1474 1473 1472 1471 1470 1469 1468 1467 1466 1466 1465 1464 1464 1463 1463 1463 1462 1462 1461 1461 1460 1460 1459 1459 1459 1459 1459 1458 1458 1457 1457 1456 1456 1455 1455 1454 1453 1453 1452 1451 1451 1450 1449 1448 1448 1447 1446 1445 1444 1443 1442 1441 1440 1439 1438 1438 1437 1436 1435 1435 1434 1433 1433 1432 1432 1431 1430 1430
1473 1472 1471 1470 1469 1469 1468 1467 1466 1465 1464 1464 1463 1463 1462 1462 1461 1461 1460 1459 1459 1459 1458 1458 1458 1458 1458 1457 1457 1456 1456 1455 1454 1454 1453 1453 1452 1451 1451 1450 1449 1449 1448 1447 1447 1446 1445 1444 1443 1442 1441 1440 1439 1438 1437 1437 1436 1435 1434 1433 1433 1432 1431 1431 1430 1429 1429 1428 1428
1471 1470 1469 1469 1468 1467 1466 1466 1465 1464 1463 1462 1462 1461 1461 1460 1460 1459 1459 1458 1458 1458 1457 1457 1457 1456 1456 1455 1455 1454 1454 1453 1453 1452 1452 1451 1450 1450 1449 1448 1448 1447 1446 1445 1444 1443 1443 1442 1441 1440 1439 1438 1437 1436 1435 1434 1433 1433 1432 1431 1430 1430 1429 1428 1428 1427 1427 1426 1425
1469 1468 1468 1467 1466 1466 1465 1464 1463 1463 1462 1461 1461 1460 1460 1459 1459 1458 1458 1457 1457 1456 1456 1455 1455 1454 1454 1453 1453 1453 1452 1451 1451 1450 1449 1449 1448 1448 1447 1447 1446 1445 1444 1443 1442 1441 1440 1439 1438 1438 1437 1436 1434 1433 1433 1432 1431 1430 1429 1429 1428 1428 1427 1426 1426 1425 1424 1423 1423
1468 1466 1466 1465 1464 1464 1463 1463 1462 1462 1461 1461 1460 1459 1459 1458 1457 1457 1456 1456 1455 1455 1454 1453 1453 1453 1452 1452 1451 1451 1450 1449 1449 1448 1448 1447 1447 1446 1445 1444 1443 1443 1442 1441 1440 1439 1438 1437 1436 1435 1434 1433 1432 1431 1430 1430 1429 1428 1427 1426 1426 1425 1424 1424 1423 1423 1422 1421 1420
1466 1465 1464 1463 1463 1463 1462 1462 1461 1461 1460 1460 1459 1458 1458 1457 1456 1455 1455 1454 1454 1453 1453 1452 1452 1451 1451 1450 1449 1448 1448 1447 1447 1446 1446 1445 1445 1444 1443 1442 1442 1441 1440 1439 1438 1437 1436 1435 1434 1433 1432 1431 1430 1429 1428 1428 1427 1426 1425 1424 1423 1423 1422 1421 1421 1420 1419 1418 1418
1464 1463 1463 1462 1462 1462 1461 1461 1460 1460 1459 1458 1457 1457 1456 1455 1454 1454 1453 1453 1453 1452 1451 1451 1450 1449 1448 1448 1447 1447 1446 1445 1445 1444 1444 1443 1443 1442 1441 1440 1439 1438 1438 1437 1436 1435 1434 1433 1432 1431 1430 1429 1428 1427 1426 1425 1424 1424 1423 1422 1421 1420 1419 1418 1418 1417 1417 1416 1415
1463 1462 1461 1461 1461 1460 1460 1459 1458 1458 1457 1456 1456 1455 1454 1454 1453 1453 1452 1452 1451 1451 1450 1449 1448 1447 1446 1446 1445 1445 1444 1444 1443 1443 1442 1441 1440 1440 1439 1438 1437 1436 1435 1434 1434 1433 1433 1432 1430 1429 1428 1427 1426 1425 1424 1423 1422 1422 1421 1420 1419 1418 1417 1416 1415 1414 1413 1413 1412
1461 1460 1460 1459 1459 1458 1458 1458 1457 1456 1455 1455 1454 1453 1453 1453 1452 1452 1451 1451 1450 1449 1448 1447 1446 1445 1445 1444 1444 1443 1443 1442 1442 1441 1440 1439 1438 1438 1437 1436 1435 1434 1433 1433 1432 1431 1430 1429 1428 1427 1426 1425 1423 1423 1422 1421 1420 1419 1418 1418 1417 1416 1414 1413 1412 1411 1410 1409 1408
1460 1459 1458 1458 1458 1457 1456 1456 1455 1454 1454 1453 1453 1453 1452 1452 1451 1451 1450 1449 1448 1447 1446 1445 1445 1444 1443 1443 1442 1441 1441 1440 1439 1439 1438 1437 1436 1435 1434 1433 1433 1432 1432 1431 1430 1429 1428 1427 1426 1425 1424 1423 1422 1420 1420 1419 1418 1417 1416 1415 1414 1413 1412 1411 1409 1408 1407 1406 1405
1458 1458 1457 1457 1456 1456 1455 1454 1454 1453 1453 1453 1452 1452 1451 1450 1450 1449 1448 1448 1447 1446 1445 1444 1443 1443 1442 1441 1440 1439 1439 1438 1438 1437 1436 1435 1434 1433 1433 1432 1431 1431 1430 1429 1428 1427 1426 1425 1424 1423 1422 1421 1419 1418 1418 1417 1415 1414 1413 1413 1412 1410 1409 1408 1407 1405 1404 1403 1402
1457 1456 1456 1455 1455 1454 1454 1453 1453 1452 1452 1451 1451 1450 1450 1449 1448 1448 1447 1446 1446 1445 1444 1443 1442 1441 1440 1439 1438 1438 1438 1437 1436 1435 1434 1433 1432 1432 1431 1430 1430 1429 1428 1427 1426 1424 1423 1423 1422 1421 1420 1418 1418 1417 1415 1414 1413 1412 1411 1410 1409 1408 1407 1405 1404 1403 1401 1400 1399
1456 1455 1455 1454 1454 1453 1453 1452 1452 1451 1450 1450 1449 1448 1448 1448 1447 1446 1446 1445 1444 1443 1442 1441 1440 1439 1438 1438 1437 1437 1436 1435 1434 1433 1433 1432 1431 1430 1429 1429 1428 1427 1426 1425 1423 1423 1421 1420 1419 1418 1418 1417 1416 1414 1413 1412 1411 1410 1409 1407 1406 1405 1404 1403 1401 1400 1399 1398 1397
1454 1454 1453 1453 1452 1452 1451 1451 1450 1449 1449 1448 1448 1447 1446 1446 1445 1445 1444 1443 1442 1441 1440 1439 1438 1438 1437 1437 1436 1435 1434 1433 1433 1432 1431 1430 1429 1428 1428 1427 1426 1425 1424 1423 1422 1420 1419 1418 1418 1417 1416 1415 1413 1412 1411 1410 1409 1407 1406 1405 1403 1402 1401 1400 1398 1397 1396 1396 1395
1453 1452 1452 1451 1451 1450 1450 1449 1448 1448 1447 1447 1446 1445 1444 1444 1443 1443 1442 1441 1440 1439 1438 1438 1437 1437 1436 1435 1434 1433 1433 1432 1431 1430 1429 1428 1428 1427 1426 1425 1424 1423 1422 1421 1420 1418 1418 1417 1416 1415 1413 1413 1411 1410 1409 1408 1406 1405 1403 1402 1400 1399 1398 1397 1396 1395 1394 1393 1393
1451 1451 1450 1449 1449 1448 1448 1447 1447 1446 1445 1445 1444 1443 1443 1442 1441 1440 1439 1439 1438 1438 1437 1437 1436 1435 1435 1434 1433 1432 1431 1430 1429 1429 1428 1427 1426 1425 1424 1423 1422 1421 1420 1419 1418 1417 1416 1415 1414 1413 1411 1410 1409 1408 1406 1405 1403 1402 1400 1399 1398 1397 1396 1395 1394 1393 1393 1392 1391
1449 1449 1448 1448 1447 1447 1446 1445 1445 1444 1443 1443 1442 1441 1441 1440 1439 1438 1438 1438 1437 1437 1436 1436 1435 1434 1433 1432 1431 1430 1429 1429 1428 1427 1426 1425 1424 1423 1422 1421 1420 1419 1418 1417 1416 1415 1414 1413 1412 1410 1409 1408 1406 1405 1403 1402 1400 1399 1397 1396 1395 1394 1393 1392 1392 1391 1391 1390 1390
1448 1447 1447 1446 1446 1445 1444 1443 1443 1442 1442 1441 1441 1440 1439 1438 1438 1438 1437 1437 1436 1436 1435 1434 1433 1433 1432 1431 1430 1429 1428 1427 1426 1426 1425 1424 1423 1422 1421 1419 1418 1418 1416 1415 1414 1413 1412 1411 1409 1408 1407 1405 1404 1402 1401 1399 1398 1396 1395 1393 1392 1391 1391 1390 1389 1389 1389 1388 1387
1446 1446 1445 1445 1444 1443 1443 1442 1442 1441 1441 1440 1439 1438 1438 1437 1437 1437 1436 1436 1435 1434 1433 1433 1432 1431 1430 1429 1428 1428 1427 1426 1425 1424 1423 1422 1421 1420 1419 1418 1417 1416 1414 1413 1412 1411 1410 1409 1408 1406 1405 1403 1401 1400 1398 1397 1395 1394 1393 1391 1390 1389 1388 1388 1387 1387 1386 1386 1385
1444 1444 1444 1443 1443 1442 1442 1441 1440 1440 1439 1439 1438 1438 1437 1436 1436 1435 1434 1434 1433 1432 1432 1431 1430 1429 1428 1428 1427 1426 1425 1424 1423 1422 1421 1420 1419 1418 1417 1416 1415 1414 1413 1412 1410 1409 1408 1407 1405 1404 1403 1401 1399 1398 1396 1394 1393 1392 1391 1389 1388 1387 1387 1386 1385 1384 1384 1383 1383
1443 1443 1443 1442 1442 1441 1441 1440 1439 1439 1438 1438 1437 1436 1435 1434 1433 1433 1433 1432 1431 1431 1430 1429 1428 1428 1427 1426 1425 1424 1424 1423 1422 1421 1419 1418 1417 1416 1415 1414 1413 1412 1411 1410 1408 1407 1406 1405 1403 1402 1400 1399 1397 1396 1394 1393 1392 1390 1389 1388 1387 1385 1384 1384 1383 1382 1381 1380 1379
1441 1441 1441 1441 1441 1440 1439 1439 1438 1438 1437 1436 1435 1434 1433 1433 1432 1431 1431 1430 1430 1429 1428 1428 1427 1426 1425 1424 1423 1423 1422 1421 1420 1419 1418 1417 1416 1414 1413 1412 1411 1410 1409 1408 1407 1405 1404 1403 1401 1400 1398 1397 1395 1394 1393 1391 1390 1388 1387 1386 1385 1383 1382 1381 1380 1379 1378 1377 1376
1439 1439 1439 1439 1439 1438 1438 1438 1437 1437 1436 1435 1434 1433 1432 1431 1430 1430 1429 1429 1428 1428 1427 1426 1425 1424 1423 1423 1422 1421 1420 1419 1418 1417 1416 1415 1414 1413 1412 1410 1409 1408 1407 1406 1405 1403 1402 1401 1399 1398 1397 1395 1394 1393 1391 1390 1388 1387 1385 1384 1383 1382 1381 1379 1378 1377 1376 1375 1374